This is the latest recevied weather packets stored in our database for station/object KE6LRO. If no packets are shown the sender has not sent any weather packets the latest 10 day(s).
| Time | Temp. | Humidity | Pressure | Rain* | Wind** | Luminosity | Snow |
|---|---|---|---|---|---|---|---|
| 1777956410 | 11.11° C | 50% | 1017.3 hPa | 0 mm | - | 0 W/m² | - |
| 1777956107 | 11.11° C | 52% | 1017.3 hPa | 0 mm | - | 0 W/m² | - |
| 1777955804 | 11.67° C | 51% | 1017.4 hPa | 0 mm | - | 0 W/m² | - |
| 1777955500 | 12.22° C | 49% | 1017.1 hPa | 0 mm | - | 0 W/m² | - |
| 1777955196 | 12.22° C | 48% | 1017.2 hPa | 0 mm | - | 0 W/m² | - |
| 1777954894 | 12.22° C | 48% | 1017.2 hPa | 0 mm | - | 0 W/m² | - |
| 1777954591 | 12.22° C | 48% | 1016.9 hPa | 0 mm | - | 0 W/m² | - |
| 1777954288 | 12.78° C | 48% | 1016.9 hPa | 0 mm | - | 0 W/m² | - |
| 1777953985 | 12.22° C | 46% | 1017.1 hPa | 0 mm | - | 0 W/m² | - |
| 1777953682 | 12.22° C | 49% | 1016.7 hPa | 0 mm | - | 0 W/m² | - |
| 1777953378 | 11.67° C | 50% | 1016.8 hPa | 0 mm | - | 0 W/m² | - |
| 1777953075 | 12.78° C | 48% | 1016.5 hPa | 0 mm | - | 0 W/m² | - |
| 1777952772 | 13.33° C | 47% | 1016.6 hPa | 0 mm | - | 0 W/m² | - |
| 1777952468 | 12.78° C | 49% | 1016.5 hPa | 0 mm | - | 0 W/m² | - |
| 1777952165 | 12.78° C | 48% | 1016.4 hPa | 0 mm | - | 0 W/m² | - |
| 1777951864 | 13.33° C | 45% | 1016.5 hPa | 0 mm | - | 0 W/m² | - |
| 1777951561 | 13.33° C | 44% | 1016.3 hPa | 0 mm | - | 0 W/m² | - |
| 1777951257 | 13.33° C | 45% | 1016.4 hPa | 0 mm | - | 0 W/m² | - |
| 1777950955 | 13.89° C | 45% | 1016.1 hPa | 0 mm | - | 0 W/m² | - |
| 1777950651 | 13.89° C | 44% | 1016.2 hPa | 0 mm | - | 0 W/m² | - |
| 1777950348 | 13.89° C | 45% | 1016.2 hPa | 0 mm | - | 1 W/m² | - |
| 1777950044 | 14.44° C | 44% | 1016.1 hPa | 0 mm | - | 1 W/m² | - |
| 1777949740 | 14.44° C | 42% | 1016.1 hPa | 0 mm | - | 2 W/m² | - |
| 1777949439 | 14.44° C | 43% | 1015.8 hPa | 0 mm | - | 3 W/m² | - |
| 1777949135 | 15° C | 44% | 1016.1 hPa | 0 mm | - | 4 W/m² | - |
* Rain latest hour (hover to see other rain measurements)
** Current wind speed in m/s (hover to see current wind gust speed)